Change the Weather History Date:

Wednesday, February 13, 2013

  Actual Average Record
Temperature  
Mean Temperature 26 °F -  
Max Temperature 37 °F 27 °F 45 °F (2011)
Min Temperature 16 °F 13 °F 3 °F (2007)
Degree Days  
Heating Degree Days 38    
Moisture  
Dew Point 24 °F    
Average Humidity 82    
Maximum Humidity 93    
Minimum Humidity 62    
Precipitation  
Precipitation 0.05 in - - ()
Sea Level Pressure  
Sea Level Pressure 29.66 in    
Wind  
Wind Speed 5 mph (SSW)    
Max Wind Speed 8 mph    
Max Gust Speed -    
Visibility 7 miles    
Events Fog , Rain , Snow    
Averages and records for this station are not official NWS values.
T = Trace of Precipitation, MM = Missing Value Source: NWS Daily Summary

Daily Weather History Graph

Daily Weather History Graph

Search for Another Location

Airport or City:

Trip Planner

Search our weather history database for the weather conditions in past years. The results will help you decide how hot, cold, wet, or windy it might be!

Date:

Astronomy

Feb. 13, 2013 Rise Set
Actual Time 7:16 AM CST 5:39 PM CST
Civil Twilight 6:46 AM CST 6:09 PM CST
Nautical Twilight 6:12 AM CST 6:44 PM CST
Astronomical Twilight 5:38 AM CST 7:18 PM CST
Moon 8:34 AM CST (2/13) 9:56 PM CST (2/13)
Length of Visible Light 11h 23m
Length of Day
10h 22m
Waxing Crescent, 14% of the Moon is Illuminated
Feb 13
Waxing Crescent
Feb 17
First Quarter
Feb 25
Full
Mar 4
Last Quarter
Mar 11
New

Hourly Weather History & Observations

Time (CST) Temp. Windchill Dew Point Humidity Pressure Visibility Wind Dir Wind Speed Gust Speed Precip Events Conditions
12:53 AM 19.0 °F 11.1 °F 15.1 °F 85% 29.82 in 10.0 mi SW 5.8 mph - N/A   Mostly Cloudy
1:53 AM 19.0 °F 12.3 °F 16.0 °F 88% 29.81 in 10.0 mi SW 4.6 mph - N/A   Overcast
2:53 AM 19.9 °F 13.4 °F 16.0 °F 85% 29.81 in 10.0 mi WSW 4.6 mph - N/A   Overcast
3:53 AM 18.0 °F 8.7 °F 14.0 °F 84% 29.79 in 10.0 mi SW 6.9 mph - N/A   Mostly Cloudy
4:53 AM 17.1 °F 7.6 °F 12.9 °F 84% 29.79 in 10.0 mi SW 6.9 mph - N/A   Clear
5:53 AM 16.0 °F 7.4 °F 12.9 °F 88% 29.78 in 9.0 mi SW 5.8 mph - N/A   Scattered Clouds
6:53 AM 17.1 °F - 14.0 °F 88% 29.76 in 8.0 mi Calm Calm - N/A   Mostly Cloudy
7:53 AM 19.0 °F 12.3 °F 15.1 °F 85% 29.76 in 7.0 mi SW 4.6 mph - N/A   Overcast
8:53 AM 21.0 °F 12.4 °F 16.0 °F 81% 29.76 in 8.0 mi SW 6.9 mph - N/A   Overcast
9:53 AM 24.1 °F 17.0 °F 19.0 °F 81% 29.74 in 9.0 mi SW 5.8 mph - N/A   Partly Cloudy
10:53 AM 28.0 °F 21.7 °F 21.0 °F 75% 29.75 in 10.0 mi SSW 5.8 mph - N/A   Overcast
11:53 AM 32.0 °F 26.4 °F 23.0 °F 69% 29.72 in 10.0 mi SW 5.8 mph - N/A   Overcast
12:53 PM 35.1 °F 28.6 °F 24.1 °F 64% 29.69 in 10.0 mi SW 8.1 mph - N/A   Clear
1:53 PM 36.0 °F 30.3 °F 26.1 °F 67% 29.67 in 10.0 mi SSW 6.9 mph - N/A   Partly Cloudy
2:53 PM 37.9 °F 32.7 °F 26.1 °F 62% 29.65 in 10.0 mi SSW 6.9 mph - N/A   Overcast
3:53 PM 37.9 °F 33.5 °F 27.0 °F 65% 29.65 in 10.0 mi South 5.8 mph - N/A   Overcast
4:53 PM 37.0 °F 34.5 °F 28.0 °F 70% 29.65 in 10.0 mi SSW 3.5 mph - N/A   Overcast
5:53 PM 36.0 °F 31.1 °F 28.9 °F 76% 29.63 in 10.0 mi SSE 5.8 mph - N/A   Overcast
6:53 PM 37.0 °F 32.4 °F 28.9 °F 73% 29.62 in 10.0 mi East 5.8 mph - 0.00 in   Overcast
7:10 PM 35.6 °F 32.8 °F 30.2 °F 81% 29.59 in 6.0 mi ESE 3.5 mph - 0.00 in Rain Light Rain
7:37 PM 35.6 °F 31.7 °F 30.2 °F 81% 29.58 in 6.0 mi South 4.6 mph - 0.01 in Rain Light Rain
7:53 PM 35.1 °F - 30.9 °F 85% 29.60 in 6.0 mi Calm Calm - 0.01 in   Overcast
8:19 PM 33.8 °F - 30.2 °F 87% 29.56 in 2.5 mi Calm Calm - 0.01 in Snow Light Snow
8:30 PM 33.8 °F - 30.2 °F 87% 29.56 in 1.5 mi Calm Calm - 0.02 in Snow Light Snow
8:53 PM 33.1 °F - 30.9 °F 92% 29.59 in 1.5 mi Calm Calm - 0.03 in Snow Light Snow
9:23 PM 33.8 °F - 30.2 °F 87% 29.55 in 0.8 mi Calm Calm - 0.00 in Snow Light Snow
9:31 PM 33.8 °F - 30.2 °F 87% 29.54 in 0.8 mi Calm Calm - 0.01 in Snow Light Snow
9:53 PM 33.1 °F - 30.9 °F 92% 29.58 in 0.5 mi Calm Calm - 0.01 in Fog , Snow Light Snow
10:14 PM 33.8 °F - 32.0 °F 93% 29.54 in 1.0 mi Calm Calm - 0.00 in Snow Light Snow
10:53 PM 33.1 °F - 30.9 °F 92% 29.57 in 2.0 mi Calm Calm - 0.00 in   Overcast
11:11 PM 33.8 °F 29.6 °F 32.0 °F 93% 29.54 in 3.0 mi WNW 4.6 mph - N/A   Overcast
11:53 PM 34.0 °F 28.0 °F 30.9 °F 89% 29.58 in 4.0 mi NNW 6.9 mph - 0.00 in Snow Light Snow